Dewpoint
67 66 65 64 65 64 64 65 67 67 67 67 67 68 67 67 68 68 68 69 69 69 68 68 68 68 67 68 68 69 69 69 69 68 68 67 67 66 66 65 64 64 64 65 65 66 67 66 65 66 67 66 66 66 65 66 66 65 64 63 62 62 62 61 59 58 61 62 60 60 60 61 61 62 61 61 60 59 57 60 58 57 56 56 56
66 67 66 65 65 64 65 64 65 65 67 67 67 67 68 68 68 68 69 69 69 69 68 68 68 68 67 67 67 68 67 67 68 68 67 68 67 66 66 65 64 64 65 64 65 67 67 65 65 65 66 65 65 65 65 65 65 64 63 63 61 62 63 61 60 59 59 61 60 61 60 61 60 61 61 61 60 59 59 59 58 55 54 52 52
66 66 67 66 64 64 64 66 66 66 67 67 68 68 68 68 68 68 68 69 68 68 67 68 67 67 66 67 67 67 67 67 68 68 68 67 65 66 66 65 65 65 65 64 64 66 66 66 66 65 66 66 66 65 65 65 64 63 63 62 62 62 63 63 61 60 59 60 61 60 60 60 60 59 61 61 61 60 58 59 56 53 52 52 52
65 66 65 66 66 65 64 65 66 66 67 68 68 68 68 68 67 68 67 68 68 68 68 67 67 66 66 66 66 66 66 66 67 67 67 66 65 65 65 65 65 65 64 64 64 65 65 66 65 66 66 66 65 65 65 64 64 63 62 62 62 62 63 63 63 62 60 59 61 59 59 60 60 60 60 59 60 60 59 59 57 52 51 51 51
64 64 65 66 65 63 65 67 66 67 67 68 68 68 67 67 67 66 67 68 68 68 68 67 67 66 67 66 65 65 66 66 66 67 67 67 65 65 64 64 65 64 64 64 66 65 65 65 64 65 66 66 66 65 64 64 63 62 62 60 60 61 62 62 62 62 61 60 60 59 59 60 59 59 59 57 58 58 58 58 56 53 54 55 53
62 64 65 65 67 66 67 67 66 67 66 67 68 67 68 68 67 67 66 66 67 68 68 68 67 66 66 66 65 66 66 66 65 66 66 66 66 65 65 65 65 64 64 64 64 65 65 64 65 65 64 64 64 64 64 63 63 62 61 61 61 61 62 62 62 62 60 60 60 59 59 58 58 58 58 58 57 56 56 57 56 54 54 53 51
62 61 63 63 65 65 66 66 66 67 66 67 67 67 67 69 68 67 67 66 66 67 67 66 67 66 66 66 65 65 65 65 65 65 65 65 65 65 65 65 65 65 65 64 64 64 65 65 65 65 65 64 65 64 64 63 63 61 61 61 62 61 61 61 61 61 61 61 60 60 58 59 59 57 57 58 57 56 55 54 53 53 54 52 51
61 62 64 63 63 65 66 67 67 66 67 67 68 68 68 68 68 67 67 66 66 66 66 66 67 67 66 66 65 65 65 65 65 65 65 65 65 65 65 66 65 65 66 65 65 65 65 65 65 65 65 64 65 64 64 63 62 61 61 61 61 60 60 60 60 60 60 60 59 58 58 57 57 57 56 56 56 55 56 55 52 51 52 53 52
61 61 63 64 64 64 66 67 68 67 67 67 67 67 67 67 66 65 66 66 67 66 66 66 66 66 66 66 65 65 66 66 67 66 66 65 65 65 65 65 65 66 65 66 65 65 65 65 64 65 66 65 59 59 59 59 63 60 61 60 60 60 60 59 60 59 59 59 59 58 57 57 57 56 55 54 54 54 55 55 53 52 53 51 51
61 61 61 63 65 64 65 66 66 66 67 66 66 67 66 66 66 65 65 65 66 66 66 66 65 66 65 65 66 68 67 67 65 60 60 65 65 65 65 65 66 65 66 66 65 65 65 65 66 66 61 60 56 51 50 51 53 61 62 60 60 60 60 59 58 58 58 57 57 57 56 56 56 56 56 56 56 56 55 55 54 54 53 52 52
61 60 61 62 63 64 64 64 64 64 65 65 66 65 65 65 65 65 65 66 66 66 66 65 66 66 64 65 66 68 68 67 57 55 56 59 65 66 65 65 65 65 65 65 65 65 65 64 66 63 61 58 56 47 47 46 46 46 45 46 49 64 60 59 58 58 56 56 56 56 55 56 57 58 57 57 56 56 56 56 55 54 53 52 51
60 61 60 62 61 62 63 62 63 64 64 64 64 63 64 65 65 65 65 66 66 67 67 66 66 66 66 66 67 68 68 61 50 51 52 54 60 67 66 65 66 65 64 65 65 65 65 65 65 65 64 62 59 56 51 44 43 42 42 42 41 41 43 57 59 58 58 56 56 56 56 56 58 57 56 57 56 56 57 57 56 55 54 53 53
60 60 61 60 61 63 62 62 62 63 64 63 63 62 62 63 64 64 64 66 66 65 66 67 66 66 67 66 67 67 68 48 50 49 50 50 53 61 65 66 65 65 65 65 64 65 65 65 65 64 62 60 58 59 57 54 46 44 45 45 45 43 40 39 39 58 58 56 55 55 55 56 56 56 57 57 57 57 57 56 56 56 56 55 54
60 59 60 60 61 62 62 63 63 64 64 63 62 62 62 63 63 64 65 65 65 65 66 67 67 66 66 66 66 66 66 51 49 48 49 48 50 56 65 66 66 65 64 65 65 65 65 65 64 63 62 60 59 59 58 56 55 54 56 56 54 51 43 44 44 43 52 57 57 56 57 57 56 58 58 57 56 56 56 56 56 56 57 56 57
59 60 60 60 60 61 62 63 63 63 63 62 62 61 62 62 63 63 64 64 65 65 67 67 67 66 66 66 65 65 65 49 48 47 47 47 48 54 65 65 65 65 65 65 65 65 65 65 64 63 62 61 60 59 58 57 57 58 56 57 57 57 57 56 57 57 57 57 57 58 60 59 59 59 59 58 58 57 57 57 58 58 57 56 55
58 61 60 59 59 59 60 61 62 63 63 63 62 61 62 63 63 64 64 65 65 66 67 67 67 66 66 66 65 65 70 46 47 46 46 46 47 65 66 66 65 65 65 65 65 65 64 65 64 63 62 61 57 50 54 58 58 57 56 56 55 53 50 45 40 42 52 56 56 57 55 55 45 58 56 58 58 58 57 57 58 57 55 53 52
55 59 59 59 59 59 59 59 59 61 62 62 62 61 61 62 64 64 65 66 66 67 67 67 66 66 66 66 65 65 69 51 45 45 46 45 52 65 66 65 64 65 64 65 65 65 64 64 63 62 62 61 52 46 47 53 57 56 56 56 55 53 50 49 42 40 40 40 39 39 39 39 40 40 40 41 51 56 54 53 54 54 52 52 52
56 57 58 59 60 60 60 59 59 59 60 60 60 61 62 63 64 65 65 65 66 66 66 67 66 66 66 66 65 66 66 54 44 45 45 45 57 65 65 65 65 64 65 65 65 64 64 64 63 62 61 59 44 43 45 54 57 56 56 55 53 52 51 51 50 48 40 40 40 40 40 40 40 41 41 42 44 51 53 49 52 51 51 52 51
57 57 57 58 59 60 60 60 59 59 59 60 61 61 62 63 64 66 65 65 66 66 66 66 65 66 66 66 64 65 65 55 43 44 45 46 57 66 65 64 64 64 64 63 64 63 63 60 59 59 59 53 42 42 43 51 57 56 56 54 52 52 52 52 51 50 52 54 54 56 52 49 53 52 49 44 47 53 56 55 53 51 51 50 49
57 58 58 59 60 60 61 60 60 60 59 61 62 62 63 63 64 66 65 65 65 65 66 65 65 66 66 66 67 67 66 62 50 43 45 46 51 65 65 64 63 63 63 62 62 62 62 60 55 47 44 42 42 41 42 44 55 56 55 53 53 52 52 52 54 53 53 52 52 53 52 52 52 52 52 52 52 52 54 54 53 51 50 48 48
59 60 60 60 59 60 60 60 61 61 62 63 63 63 63 64 65 66 65 65 66 66 66 66 66 65 64 64 65 66 66 65 52 42 44 46 49 55 65 64 64 63 63 62 62 61 60 59 58 44 41 41 41 40 41 44 48 55 55 53 55 53 49 51 51 51 53 52 51 51 50 48 48 47 46 47 47 50 51 52 52 51 49 47 45
60 61 60 60 60 61 62 62 63 63 63 63 63 63 63 64 65 65 65 65 66 66 66 65 65 65 65 66 67 66 66 61 57 44 44 45 49 48 63 65 64 64 63 61 61 61 61 59 56 45 40 40 40 40 41 44 46 54 54 41 41 42 50 49 50 49 48 48 45 45 46 46 43 45 44 45 46 47 47 47 47 48 48 49 48
60 60 60 60 61 61 62 63 63 64 63 63 63 63 64 65 66 65 65 66 66 66 66 65 64 64 65 65 65 65 64 60 50 51 44 45 47 47 48 59 54 66 63 61 61 60 61 59 55 43 40 39 39 39 40 42 46 48 38 40 41 42 44 46 46 47 45 44 45 44 42 43 43 42 42 43 44 45 44 45 45 45 45 45 45
59 60 61 61 62 62 63 63 64 64 64 64 63 63 64 65 65 65 66 65 65 65 65 65 65 64 63 63 63 63 62 61 50 47 48 43 46 47 46 50 54 63 64 62 61 60 60 59 50 39 39 39 39 39 39 42 47 38 39 39 40 41 45 46 45 46 42 40 40 41 42 41 42 41 41 42 42 44 45 45 45 44 43 43 43
59 60 60 61 62 63 63 63 64 63 64 65 64 63 64 65 64 65 65 65 64 64 65 64 64 63 63 62 61 61 61 60 57 50 45 45 45 45 45 47 51 53 63 61 61 61 50 42 39 39 39 39 38 38 38 38 38 38 38 39 45 45 47 44 43 43 42 41 41 42 42 42 42 41 42 43 44 43 43 43 43 42 42 42 42
60 60 60 61 62 63 63 64 64 64 65 64 64 63 64 64 64 65 65 64 64 65 63 63 62 63 62 61 60 60 60 59 57 54 48 47 47 44 44 45 44 43 49 50 40 40 40 40 39 38 39 40 46 49 49 45 38 38 38 42 48 45 44 42 43 43 42 42 40 40 39 38 40 43 46 45 41 39 39 38 37 37 38 36 35
59 60 61 61 62 63 63 63 64 64 64 64 64 64 64 65 65 63 64 64 64 63 63 62 62 61 61 61 60 59 58 58 56 54 54 55 55 51 52 50 45 46 51 50 46 46 43 43 43 41 42 41 43 41 41 39 42 44 45 46 47 44 42 44 43 44 42 42 40 42 45 46 47 46 43 41 38 38 37 35 33 33 35 33 33
59 60 61 62 62 63 64 56 61 64 64 65 63 63 64 64 63 63 63 63 63 63 63 61 61 62 61 61 59 59 58 58 56 55 55 56 55 56 56 56 58 58 56 55 53 50 48 42 43 47 48 49 48 48 47 48 47 46 47 47 44 44 45 46 46 47 45 45 46 45 45 43 41 39 39 38 35 34 35 33 35 34 34 36 34
60 61 62 62 63 62 63 63 63 63 64 63 60 62 64 63 63 64 64 64 65 64 63 62 61 62 62 60 59 59 59 58 57 50 55 50 54 58 57 58 59 58 53 48 52 51 50 50 50 50 50 50 49 50 49 48 47 48 50 48 46 44 43 45 47 47 47 47 43 41 39 38 38 39 35 33 34 32 36 36 38 38 36 35 33
61 62 62 62 62 62 62 63 63 62 61 59 56 53 38 37 46 63 62 48 47 48 52 63 63 63 62 61 61 60 59 60 49 47 47 48 49 51 52 51 51 53 46 45 50 53 53 53 52 51 51 52 51 49 49 49 48 48 48 43 45 44 44 45 46 46 45 43 41 39 38 39 37 34 32 32 36 37 37 35 37 37 35 33 32
62 62 62 62 60 61 61 61 61 60 60 59 58 55 55 51 39 36 38 43 44 45 46 50 54 54 60 60 53 41 48 46 46 47 46 46 46 47 46 44 43 43 43 51 53 52 51 51 51 52 52 52 50 51 49 49 47 47 46 46 45 44 42 42 44 45 42 38 39 38 37 36 34 32 34 35 36 35 37 37 35 37 34 34 32
61 61 62 60 58 60 60 60 60 60 59 59 58 57 57 55 50 41 38 39 39 40 41 44 47 47 50 53 55 52 44 45 45 45 45 44 44 44 42 42 42 43 44 46 50 51 53 53 52 52 52 51 50 49 49 49 49 48 47 46 46 45 46 46 46 43 41 40 39 36 37 37 35 33 34 35 33 36 37 37 36 37 35 35 33
62 61 60 57 57 56 57 57 58 58 57 57 57 58 57 55 53 49 45 39 38 39 39 39 41 43 44 46 48 48 47 46 45 45 44 43 42 42 41 41 42 43 43 49 50 50 54 54 53 52 52 51 52 52 51 50 48 48 48 47 45 46 44 44 42 41 39 40 39 37 36 35 34 33 31 33 34 36 34 35 34 35 34 34 32
61 60 58 58 57 57 56 56 56 57 58 58 58 58 55 57 53 51 50 50 50 45 41 39 39 40 41 41 42 42 42 43 43 43 41 41 40 40 41 42 41 42 47 53 52 52 53 53 53 53 52 52 52 51 50 49 49 48 46 46 44 43 43 44 42 41 40 39 38 38 37 37 35 33 33 33 35 36 34 33 34 33 33 33 31
57 47 43 50 56 55 56 57 58 58 58 59 59 59 59 56 54 54 54 54 54 52 51 47 40 39 44 42 40 40 40 41 40 40 40 39 40 40 42 48 49 50 52 55 54 54 54 53 53 52 52 51 51 51 50 49 48 47 46 45 44 43 43 42 40 40 40 39 40 37 36 35 32 30 31 34 35 34 33 33 33 34 33 33 31
55 55 55 54 56 56 56 56 57 57 57 59 59 59 56 55 55 56 55 54 51 48 45 45 43 39 38 38 39 39 39 39 39 39 39 39 40 43 50 50 51 52 52 52 52 53 53 52 52 52 51 50 49 49 49 48 47 46 46 45 45 44 43 42 40 39 40 39 37 36 35 31 30 33 36 37 38 35 32 34 32 32 33 32 29
55 55 56 56 56 54 55 56 56 56 52 55 57 58 56 56 55 54 51 52 49 47 46 46 46 45 42 41 39 38 38 38 39 39 39 40 41 48 53 53 54 54 51 51 50 50 51 50 50 50 50 48 48 49 49 49 48 47 44 44 44 43 42 41 39 38 38 37 37 36 35 34 35 35 35 34 33 33 33 34 32 30 30 28 27
55 55 55 55 55 54 54 54 53 45 53 54 54 55 55 54 53 52 51 48 47 47 48 49 46 48 45 44 43 42 39 39 40 41 41 42 44 51 51 52 53 53 52 52 51 50 48 49 49 50 50 49 48 48 46 46 46 45 44 44 43 43 39 40 37 40 38 37 36 37 34 34 35 35 33 32 31 31 32 31 31 29 27 27 27
47 39 40 42 46 53 51 50 50 52 52 52 52 52 50 50 49 49 48 48 49 49 48 49 48 46 46 45 45 45 45 47 46 44 47 48 49 49 50 50 50 50 51 51 50 48 49 48 48 48 49 48 47 47 46 45 45 45 44 44 43 42 40 40 39 38 36 36 36 36 34 34 34 34 33 31 30 31 31 31 31 30 28 27 26
48 48 44 41 46 48 50 49 49 50 49 51 50 50 49 49 49 49 50 50 50 49 49 47 47 48 47 47 46 49 50 49 49 49 49 48 46 50 50 50 49 49 49 49 49 49 49 48 48 48 48 48 47 46 46 45 45 43 44 42 42 41 41 40 40 38 37 36 34 34 33 33 34 33 31 30 30 31 30 30 29 29 27 26 25
47 46 43 43 44 48 48 48 50 50 50 49 49 49 49 49 50 48 48 48 47 47 47 47 48 48 48 47 43 46 51 51 51 49 49 49 49 50 50 50 49 49 49 48 49 48 49 48 48 49 49 48 47 45 46 44 43 42 41 40 40 40 41 42 41 40 39 38 37 35 34 34 33 31 30 31 32 31 29 29 27 25 26 24 25
47 47 47 47 46 48 47 46 46 46 47 48 49 49 47 48 48 48 46 46 44 45 45 45 45 45 41 39 41 42 51 51 50 49 51 51 50 49 48 49 49 49 48 49 50 50 49 49 50 49 48 47 46 44 44 44 43 42 40 40 39 39 39 39 39 39 38 38 37 36 34 32 31 31 32 32 29 29 27 26 25 24 24 22 19
45 45 46 45 47 47 47 47 48 48 48 47 46 42 44 46 46 45 45 44 45 44 44 43 43 44 43 39 42 44 50 50 46 50 51 50 48 47 48 48 48 48 48 48 49 49 49 49 48 47 47 46 47 43 42 42 41 41 41 40 40 39 38 37 36 35 35 34 33 32 33 32 31 31 29 30 30 27 25 27 24 22 21 22 19
45 45 44 44 45 45 45 45 44 44 44 42 42 44 44 45 45 45 44 44 44 44 44 43 43 44 45 44 45 46 48 49 50 50 50 49 49 48 48 47 47 47 47 46 46 46 46 47 43 45 47 46 46 46 44 43 42 41 39 38 37 36 37 36 35 35 34 33 32 31 31 31 30 30 30 29 27 25 24 25 22 19 16 17 15
46 45 45 45 45 45 45 45 45 44 42 44 46 46 45 46 45 45 44 44 43 44 44 44 45 45 45 45 45 44 45 46 46 46 48 49 48 49 49 47 46 46 45 45 45 46 45 44 45 43 44 45 45 44 43 43 43 41 39 38 36 35 35 35 36 36 35 33 32 32 31 30 30 29 27 26 25 25 22 21 17 18 14 14 13
45 45 43 44 43 44 45 46 43 45 45 45 45 45 45 45 45 44 44 44 44 45 44 45 45 45 44 45 44 42 44 45 46 46 46 47 46 47 45 44 45 45 44 44 44 44 42 43 41 42 42 43 44 43 42 43 41 40 41 39 38 37 38 38 37 35 34 34 32 31 30 30 30 28 26 23 23 22 20 19 18 14 13 15 14
45 44 44 44 43 42 42 43 44 43 44 43 43 43 43 43 44 42 40 42 44 44 46 46 47 46 44 46 45 45 43 43 42 42 43 44 44 43 43 44 43 43 42 43 44 42 42 41 41 42 42 42 42 43 41 39 39 38 39 38 38 39 38 36 36 36 35 35 33 31 30 29 27 23 22 23 21 17 18 15 14 17 15 13 14
45 44 44 43 44 44 44 44 43 40 42 43 42 42 42 43 43 43 44 44 44 45 45 45 44 43 43 44 43 44 44 45 45 45 45 44 44 43 43 42 40 40 40 41 40 40 40 40 41 41 40 41 40 40 40 39 39 39 38 38 38 38 37 36 37 37 35 34 32 31 30 27 25 24 22 22 20 17 15 13 16 14 14 13 11
45 45 45 44 44 44 44 44 44 44 45 44 44 44 44 45 44 44 44 45 45 43 43 42 42 42 42 41 43 43 43 43 45 44 44 44 44 42 41 40 40 40 39 38 39 40 40 40 39 39 40 40 39 39 39 39 39 39 39 37 35 35 35 35 36 35 33 33 32 30 30 27 25 25 22 20 17 17 13 17 14 13 12 13 12
44 44 44 44 44 44 45 45 46 46 45 45 44 44 44 43 45 45 45 46 43 41 41 41 41 41 41 41 41 42 43 42 42 41 42 41 41 41 41 42 41 40 39 38 38 39 39 39 40 39 39 39 39 39 38 38 38 37 36 34 33 33 33 33 33 33 31 31 32 29 29 26 25 24 21 20 21 18 18 16 15 14 12 14 15
44 44 44 44 44 44 45 46 44 44 43 42 42 42 42 41 41 41 41 41 41 41 40 40 41 40 40 40 40 42 43 42 41 41 41 41 41 41 40 40 39 39 39 38 38 38 39 38 36 36 36 36 36 36 36 36 36 35 33 32 32 32 32 32 31 30 29 29 29 28 27 26 25 22 19 17 19 19 17 17 16 14 14 13 14